Weather History for KHNR - October, 2012

Change the Weather History Date:

Friday, October 12, 2012

  Actual Average Record
Temperature  
Mean Temperature 44 °F -  
Max Temperature 60 °F 64 °F 90 °F (1975)
Min Temperature 28 °F 41 °F 25 °F (1980)
Degree Days  
Heating Degree Days 21    
Moisture  
Dew Point 24 °F    
Average Humidity 48    
Maximum Humidity 80    
Minimum Humidity 16    
Precipitation  
Precipitation 0.00 in - - ()
Sea Level Pressure  
Sea Level Pressure 30.30 in    
Wind  
Wind Speed 9 mph (ESE)    
Max Wind Speed 18 mph    
Max Gust Speed 26 mph    
Visibility 10 miles    
Events      
Averages and records for this station are not official NWS values.
T = Trace of Precipitation, MM = Missing Value Source: NWS Daily Summary

Daily Weather History Graph

Daily Weather History Graph

Search for Another Location

Airport or City:

Trip Planner

Search our weather history database for the weather conditions in past years. The results will help you decide how hot, cold, wet, or windy it might be!

Date:

Astronomy

Oct. 12, 2012 Rise Set
Actual Time 7:30 AM CDT 6:44 PM CDT
Civil Twilight 7:02 AM CDT 7:11 PM CDT
Nautical Twilight 6:30 AM CDT 7:44 PM CDT
Astronomical Twilight 5:58 AM CDT 8:16 PM CDT
Moon 4:12 AM CDT (10/12) 4:56 PM CDT (10/12)
Length of Visible Light 12h 09m
Length of Day
11h 13m
Waning Crescent, 10% of the Moon is Illuminated
Oct 12
Waning Crescent
Oct 15
New
Oct 21
First Quarter
Oct 29
Full
Nov 6
Last Quarter

Hourly Weather History & Observations

Time (CDT) Temp. Windchill Dew Point Humidity Pressure Visibility Wind Dir Wind Speed Gust Speed Precip Events Conditions
12:15 AM 37.4 °F 31.4 °F 23.0 °F 56% 30.40 in 10.0 mi North 8.1 mph - N/A   Mostly Cloudy
12:35 AM 35.6 °F 30.7 °F 23.0 °F 60% 30.41 in 10.0 mi North 5.8 mph - N/A   Mostly Cloudy
12:55 AM 33.8 °F 27.7 °F 23.0 °F 65% 30.41 in 10.0 mi North 6.9 mph - N/A   Scattered Clouds
1:15 AM 33.8 °F 29.6 °F 23.0 °F 65% 30.41 in 10.0 mi North 4.6 mph - N/A   Clear
1:35 AM 33.8 °F 28.6 °F 23.0 °F 65% 30.42 in 10.0 mi North 5.8 mph - N/A   Clear
1:55 AM 32.0 °F 24.8 °F 23.0 °F 69% 30.42 in 10.0 mi North 8.1 mph - N/A   Clear
2:15 AM 30.2 °F 24.3 °F 23.0 °F 75% 30.42 in 10.0 mi North 5.8 mph - N/A   Clear
2:35 AM 30.2 °F 22.6 °F 23.0 °F 75% 30.41 in 10.0 mi North 8.1 mph - N/A   Clear
3:15 AM 30.2 °F 24.3 °F 23.0 °F 75% 30.41 in 10.0 mi NNE 5.8 mph - N/A   Clear
3:35 AM 30.2 °F - 23.0 °F 75% 30.40 in 10.0 mi Calm Calm - N/A   Clear
3:55 AM 28.4 °F 23.3 °F 23.0 °F 80% 30.40 in 10.0 mi North 4.6 mph - N/A   Clear
4:15 AM 30.2 °F 22.6 °F 21.2 °F 69% 30.40 in 10.0 mi NNE 8.1 mph - N/A   Clear
4:35 AM 30.2 °F 22.6 °F 21.2 °F 69% 30.39 in 10.0 mi NNE 8.1 mph - N/A   Clear
4:55 AM 30.2 °F 24.3 °F 21.2 °F 69% 30.39 in 10.0 mi NNE 5.8 mph - N/A   Clear
5:15 AM 32.0 °F 25.6 °F 19.4 °F 60% 30.39 in 10.0 mi NNE 6.9 mph - N/A   Clear
5:55 AM 32.0 °F 25.6 °F 19.4 °F 60% 30.39 in 10.0 mi NNE 6.9 mph - N/A   Clear
6:15 AM 32.0 °F 26.4 °F 19.4 °F 60% 30.39 in 10.0 mi NNE 5.8 mph - N/A   Clear
6:35 AM 32.0 °F 27.5 °F 19.4 °F 60% 30.40 in 10.0 mi NE 4.6 mph - N/A   Clear
6:55 AM 32.0 °F 26.4 °F 19.4 °F 60% 30.41 in 10.0 mi NE 5.8 mph - N/A   Clear
7:15 AM 33.8 °F 27.7 °F 19.4 °F 56% 30.40 in 10.0 mi NE 6.9 mph - N/A   Clear
7:35 AM 33.8 °F 27.7 °F 19.4 °F 56% 30.41 in 10.0 mi ENE 6.9 mph - N/A   Clear
7:55 AM 33.8 °F 27.7 °F 19.4 °F 56% 30.40 in 10.0 mi ENE 6.9 mph - N/A   Clear
8:15 AM 33.8 °F 27.7 °F 19.4 °F 56% 30.41 in 10.0 mi East 6.9 mph - N/A   Clear
8:35 AM 35.6 °F 29.9 °F 19.4 °F 52% 30.42 in 10.0 mi East 6.9 mph - N/A   Clear
9:15 AM 39.2 °F 31.2 °F 19.4 °F 45% 30.41 in 10.0 mi ESE 13.8 mph - N/A   Clear
9:35 AM 42.8 °F 35.8 °F 19.4 °F 39% 30.41 in 10.0 mi ESE 13.8 mph 17.3 mph N/A   Clear
9:55 AM 44.6 °F 38.8 °F 17.6 °F 34% 30.40 in 10.0 mi ESE 11.5 mph - N/A   Clear
10:15 AM 46.4 °F 40.1 °F 17.6 °F 32% 30.40 in 10.0 mi ESE 15.0 mph 25.3 mph N/A   Clear
10:35 AM 46.4 °F 39.2 °F 15.8 °F 29% 30.39 in 10.0 mi ESE 18.4 mph 23.0 mph N/A   Clear
11:15 AM 48.2 °F - 15.8 °F 27% 30.39 in 10.0 mi ESE 17.3 mph 26.5 mph N/A   Clear
11:35 AM 51.8 °F - 15.8 °F 24% 30.38 in 10.0 mi SE 18.4 mph 23.0 mph N/A   Clear
12:15 PM 53.6 °F - 15.8 °F 22% 30.37 in 10.0 mi SE 11.5 mph 21.9 mph N/A   Clear
12:35 PM 53.6 °F - 12.2 °F 19% 30.35 in 10.0 mi SE 13.8 mph 21.9 mph N/A   Clear
12:55 PM 55.4 °F - 14.0 °F 20% 30.32 in 10.0 mi ESE 15.0 mph - N/A   Clear
1:35 PM 57.2 °F - 12.2 °F 17% 30.30 in 10.0 mi ESE 15.0 mph 18.4 mph N/A   Clear
1:55 PM 59.0 °F - 12.2 °F 16% 30.29 in 10.0 mi ESE 16.1 mph 20.7 mph N/A   Clear
2:15 PM 59.0 °F - 12.2 °F 16% 30.28 in 10.0 mi SE 17.3 mph - N/A   Scattered Clouds
2:35 PM 59.0 °F - 15.8 °F 19% 30.26 in 10.0 mi SE 16.1 mph - N/A   Mostly Cloudy
2:55 PM 60.8 °F - 17.6 °F 19% 30.25 in 10.0 mi SSE 13.8 mph - N/A   Overcast
3:15 PM 59.0 °F - 17.6 °F 20% 30.24 in 10.0 mi SE 10.4 mph - N/A   Mostly Cloudy
3:35 PM 59.0 °F - 17.6 °F 20% 30.23 in 10.0 mi SE 12.7 mph 18.4 mph N/A   Mostly Cloudy
3:55 PM 60.8 °F - 21.2 °F 22% 30.22 in 10.0 mi SSE 16.1 mph - N/A   Overcast
4:15 PM 59.0 °F - 21.2 °F 23% 30.21 in 10.0 mi SE 15.0 mph - N/A   Overcast
4:35 PM 59.0 °F - 21.2 °F 23% 30.19 in 10.0 mi SE 12.7 mph 18.4 mph N/A   Mostly Cloudy
5:15 PM 57.2 °F - 23.0 °F 27% 30.18 in 10.0 mi SE 9.2 mph - N/A   Overcast
5:55 PM 57.2 °F - 24.8 °F 29% 30.17 in 10.0 mi SSE 9.2 mph - N/A   Overcast
6:15 PM 57.2 °F - 24.8 °F 29% 30.17 in 10.0 mi SSE 9.2 mph - N/A   Overcast
6:35 PM 55.4 °F - 30.2 °F 38% 30.18 in 10.0 mi SSE 18.4 mph 26.5 mph N/A   Overcast
6:55 PM 55.4 °F - 33.8 °F 44% 30.18 in 10.0 mi SSE 15.0 mph 21.9 mph N/A   Overcast
7:15 PM 53.6 °F - 35.6 °F 51% 30.17 in 10.0 mi South 13.8 mph 20.7 mph N/A   Overcast
7:35 PM 53.6 °F - 39.2 °F 58% 30.16 in 10.0 mi South 18.4 mph 26.5 mph N/A   Overcast
7:55 PM 51.8 °F - 39.2 °F 62% 30.15 in 10.0 mi SSE 16.1 mph 24.2 mph N/A   Overcast
8:15 PM 51.8 °F - 39.2 °F 62% 30.15 in 10.0 mi SSE 15.0 mph - N/A   Overcast
8:35 PM 51.8 °F - 39.2 °F 62% 30.14 in 10.0 mi SSE 16.1 mph 19.6 mph N/A   Overcast
9:15 PM 51.8 °F - 39.2 °F 62% 30.11 in 10.0 mi SSE 10.4 mph - N/A   Overcast
9:35 PM 51.8 °F - 37.4 °F 58% 30.11 in 10.0 mi South 13.8 mph - N/A   Overcast
9:55 PM 51.8 °F - 37.4 °F 58% 30.11 in 10.0 mi South 13.8 mph 18.4 mph N/A   Overcast
10:15 PM 51.8 °F - 39.2 °F 62% 30.10 in 10.0 mi South 15.0 mph 20.7 mph N/A   Overcast
10:35 PM 51.8 °F - 39.2 °F 62% 30.10 in 10.0 mi South 12.7 mph - N/A   Overcast
10:55 PM 51.8 °F - 41.0 °F 67% 30.08 in 10.0 mi South 13.8 mph - N/A   Overcast
11:35 PM 51.8 °F - 42.8 °F 71% 30.05 in 10.0 mi South 10.4 mph - N/A   Overcast
11:55 PM 51.8 °F - 42.8 °F 71% 30.03 in 10.0 mi South 12.7 mph 18.4 mph N/A   Overcast